FW5965 Weather Reports


time (UTC)temp
C
wind
direction
speed
KPH
gust
KPH
rain 1hr
cm
rain 24hr
cm
rain mn
cm
humidity
%
barometer
mb
20260505033000 4 123 0.0 0.0 0.23 0.25 0.25 88 1014.5
20260505031501 5 16 0.0 1.6 0.08 0.10 0.10 83 1014.7
20260505030000 6 144 0.0 0.0 0.00 0.03 0.03 82 1014.3
20260505024501 6 144 0.0 0.0 0.00 0.03 0.03 83 1013.7
20260505023002 6 144 0.0 0.0 0.00 0.03 0.03 83 1013.5
20260505021501 6 144 0.0 0.0 0.00 0.03 0.03 80 1013.2
20260505020004 6 144 0.0 0.0 0.00 0.03 0.03 80 1012.9
20260505014458 6 144 0.0 0.0 0.00 0.03 0.03 78 1013.0
20260505011459 7 144 0.0 0.0 0.00 0.03 0.03 77 1013.0
20260505003001 7 144 0.0 0.0 0.03 0.03 0.03 79 1013.1
20260505000005 8 180 0.0 0.0 0.00 0.00 0.00 68 1013.7
20260504234500 8 249 0.0 0.0 0.00 0.00 0.00 67 1013.4
20260504232959 8 286 0.0 0.0 0.00 0.00 0.00 67 1013.0
20260504231502 9 9 0.0 0.0 0.00 0.00 0.00 61 1012.6
20260504224502 10 58 0.0 0.0 0.00 0.00 0.00 51 1012.2
20260504223002 11 46 0.0 0.0 0.00 0.00 0.00 49 1011.8
20260504221500 11 96 0.0 6.4 0.00 0.00 0.00 44 1011.8
20260504220004 12 59 0.0 0.0 0.00 0.00 0.00 42 1011.6
20260504213000 14 128 0.0 0.0 0.00 0.00 0.00 36 1011.3
20260504211500 15 128 0.0 0.0 0.00 0.00 0.00 34 1011.4
20260504210004 15 51 0.0 0.0 0.00 0.00 0.00 33 1011.5
20260504204500 14 21 0.0 0.0 0.00 0.00 0.00 41 1011.7
20260504202959 14 175 0.0 1.6 0.00 0.00 0.00 38 1012.2
20260504201501 13 9 0.0 1.6 0.00 0.00 0.00 45 1012.5
20260504195958 12 319 0.0 9.7 0.00 0.00 0.00 47 1012.8
20260504194459 11 9 1.6 20.9 0.00 0.00 0.00 55 1013.4
20260504191458 13 146 0.0 0.0 0.00 0.00 0.00 40 1012.7
20260504190004 13 141 0.0 1.6 0.00 0.00 0.00 39 1012.7
20260504184500 11 130 0.0 0.0 0.00 0.00 0.00 48 1013.3
20260504181458 13 257 0.0 8.0 0.00 0.00 0.00 33 1012.6
20260504180002 13 348 0.0 4.8 0.00 0.00 0.00 35 1012.5
20260504174459 14 9 0.0 0.0 0.00 0.00 0.00 35 1012.5
20260504172958 13 17 0.0 1.6 0.00 0.00 0.00 33 1012.8
20260504171459 14 343 0.0 1.6 0.00 0.00 0.00 33 1013.0
20260504081459 3 360 0.0 0.0 0.00 0.00 0.00 49 1014.8
20260504050005 7 18 0.0 0.0 0.00 0.00 0.00 46 1016.0
20260504043003 8 18 0.0 0.0 0.00 0.00 0.00 43 1016.3
20260504041500 8 18 0.0 0.0 0.00 0.00 0.00 41 1016.5